EW9877 Weather Reports


time (UTC)temp
F
wind
direction
speed
knots
gust
knots
rain 1hr
in
rain 24hr
in
rain mn
in
humidity
%
barometer
mb
20260508140516 51 158 0.0 5.2 0.00 0.00 0.00 85 1018.8
20260508135516 51 203 0.0 1.7 0.00 0.00 0.00 85 1018.6
20260508134516 51 180 0.0 0.9 0.00 0.00 0.00 86 1018.3
20260508133516 51 158 0.0 3.5 0.00 0.00 0.00 86 1018.1
20260508132516 51 131 0.0 0.0 0.00 0.00 0.00 86 1018.1
20260508131516 51 187 0.0 0.0 0.00 0.00 0.00 86 1018.0
20260508130516 51 159 0.0 0.0 0.00 0.00 0.00 87 1017.8
20260508125516 51 222 0.0 0.0 0.00 0.00 0.00 87 1017.7
20260508124516 51 158 0.0 0.0 0.00 0.00 0.00 87 1017.6
20260508123536 51 203 0.0 1.7 0.00 0.00 0.00 88 1017.6
20260508122516 51 103 0.0 0.0 0.00 0.00 0.00 89 1017.5
20260508121516 51 216 0.0 0.0 0.00 0.00 0.00 89 1017.4
20260508120516 52 157 0.0 0.0 0.00 0.00 0.00 90 1017.4
20260508115516 52 204 0.0 0.0 0.00 0.00 0.00 91 1017.3
20260508114516 52 229 0.0 0.0 0.00 0.00 0.00 91 1017.3
20260508113536 52 145 0.0 0.0 0.00 0.00 0.00 92 1017.1
20260508112515 51 210 0.0 0.0 0.00 0.00 0.00 92 1017.1
20260508111515 51 196 0.0 0.0 0.00 0.00 0.00 91 1016.9
20260508110515 51 199 0.0 0.0 0.00 0.00 0.00 91 1016.9
20260508105516 51 180 0.0 0.0 0.00 0.00 0.00 91 1016.9
20260508104516 51 175 0.0 0.0 0.00 0.00 0.00 92 1016.8
20260508103515 51 173 0.0 0.0 0.00 0.00 0.00 92 1016.7
20260508102536 51 175 0.0 0.0 0.00 0.00 0.00 92 1016.8
20260508101516 51 174 0.0 0.0 0.00 0.00 0.00 92 1016.6
20260508100516 51 74 0.0 0.0 0.00 0.00 0.00 91 1016.6
20260508095535 51 74 0.0 0.0 0.00 0.00 0.00 91 1016.6
20260508094515 51 74 0.0 0.0 0.00 0.00 0.00 91 1016.6
20260508093516 51 74 0.0 0.0 0.00 0.00 0.00 91 1016.5
20260508092515 52 74 0.0 0.0 0.00 0.00 0.00 90 1016.6
20260508091515 52 73 0.0 0.0 0.00 0.00 0.00 90 1016.6
20260508090516 52 73 0.0 0.0 0.00 0.00 0.00 90 1016.5
20260508085515 52 73 0.0 0.0 0.00 0.00 0.00 90 1016.6
20260508084515 52 73 0.0 0.0 0.00 0.00 0.00 89 1016.6
20260508083535 52 73 0.0 0.0 0.00 0.00 0.00 89 1016.5
20260508082515 53 73 0.0 0.0 0.00 0.00 0.00 88 1016.7
20260508081515 53 73 0.0 0.0 0.00 0.00 0.00 88 1016.6
20260508080515 53 73 0.0 0.0 0.00 0.00 0.00 88 1016.5
20260508075515 54 73 0.0 0.0 0.00 0.00 0.00 88 1016.6
20260508074535 54 73 0.0 0.0 0.00 0.00 0.00 88 1016.6
20260508073535 54 73 0.0 0.0 0.00 0.00 0.00 88 1016.6
20260508072515 54 73 0.0 0.0 0.00 0.00 0.00 88 1016.7
20260508071517 54 73 0.0 0.0 0.00 0.00 0.00 88 1016.7
20260508070517 54 73 0.0 0.0 0.00 0.00 0.00 87 1016.7
20260508065517 54 113 0.0 0.0 0.00 0.00 0.00 87 1016.7
20260508064517 54 113 0.0 0.0 0.00 0.00 0.00 85 1016.7
20260508063517 54 113 0.0 0.0 0.00 0.00 0.00 84 1016.7
20260508062517 54 113 0.0 0.0 0.00 0.00 0.00 84 1016.7
20260508061517 55 113 0.0 0.0 0.00 0.00 0.00 83 1016.8
20260508060517 55 113 0.0 0.0 0.00 0.00 0.00 84 1016.9
20260508055517 55 116 0.0 0.0 0.00 0.00 0.00 84 1016.9
20260508054537 55 116 0.0 0.0 0.00 0.00 0.00 82 1016.8
20260508053537 55 116 0.0 0.0 0.00 0.00 0.00 82 1016.9
20260508052517 56 116 0.0 0.0 0.00 0.00 0.00 82 1016.8
20260508051517 56 116 0.0 0.0 0.00 0.00 0.00 81 1016.8
20260508050517 56 116 0.0 0.0 0.00 0.00 0.00 80 1016.9
20260508045517 57 116 0.0 0.0 0.00 0.00 0.00 80 1016.9
20260508044517 57 116 0.0 0.0 0.00 0.00 0.00 79 1016.9
20260508043517 57 117 0.0 0.0 0.00 0.00 0.00 78 1017.0
20260508042517 58 117 0.0 0.0 0.00 0.00 0.00 75 1017.0
20260508041537 58 117 0.0 0.0 0.00 0.00 0.00 74 1017.0
20260508040517 59 117 0.0 0.0 0.00 0.00 0.00 74 1017.1
20260508035517 60 117 0.0 0.0 0.00 0.00 0.00 72 1016.9
20260508034517 61 117 0.0 0.0 0.00 0.00 0.00 71 1016.9
20260508033517 61 117 0.0 0.0 0.00 0.00 0.00 70 1016.9
20260508032537 62 117 0.0 0.0 0.00 0.00 0.00 68 1017.0
20260508031536 62 117 0.0 0.0 0.00 0.00 0.00 67 1016.9
20260508030516 62 117 0.0 0.0 0.00 0.00 0.00 64 1016.9
20260508025516 63 117 0.0 0.0 0.00 0.00 0.00 63 1017.1
20260508024516 63 117 0.0 0.0 0.00 0.00 0.00 63 1017.1
20260508023517 63 117 0.0 0.0 0.00 0.00 0.00 64 1017.0
20260508022516 64 117 0.0 0.0 0.00 0.00 0.00 63 1017.1
20260508021517 64 117 0.0 0.0 0.00 0.00 0.00 62 1017.2
20260508020517 65 118 0.0 0.0 0.00 0.00 0.00 62 1017.3
20260508015516 65 12 0.0 0.0 0.00 0.00 0.00 61 1017.3
20260508014517 65 13 0.0 0.0 0.00 0.00 0.00 61 1017.3
20260508013516 66 11 0.0 0.0 0.00 0.00 0.00 60 1017.3
20260508012517 66 98 0.0 0.0 0.00 0.00 0.00 58 1017.4
20260508011516 67 84 0.0 0.0 0.00 0.00 0.00 58 1017.6
20260508010536 67 185 0.0 0.0 0.00 0.00 0.00 59 1017.7
20260508005517 67 179 0.0 0.0 0.00 0.00 0.00 59 1017.7
20260508004516 66 237 0.0 0.0 0.00 0.00 0.00 60 1017.8
20260508003536 66 288 0.0 0.0 0.00 0.00 0.00 60 1017.9
20260508002516 66 260 0.0 0.0 0.00 0.00 0.00 62 1017.9
20260508001516 66 355 0.0 0.0 0.00 0.00 0.00 60 1017.9
20260508000516 66 217 0.0 0.0 0.00 0.00 0.00 59 1017.9
20260507235515 66 229 0.0 0.0 0.00 0.00 0.00 60 1018.1
20260507234517 66 267 0.0 0.0 0.00 0.00 0.00 61 1018.1
20260507233537 65 126 0.0 0.0 0.00 0.00 0.00 63 1018.0
20260507232537 63 27 0.0 0.0 0.00 0.00 0.00 65 1018.1
20260507231517 63 28 0.0 0.0 0.00 0.00 0.00 64 1018.2
20260507230537 64 86 0.0 0.0 0.00 0.00 0.00 63 1018.4
20260507225517 65 96 0.0 0.0 0.00 0.00 0.00 63 1018.5
20260507224517 64 302 0.0 0.0 0.00 0.00 0.00 63 1018.7
20260507223517 64 64 0.0 0.0 0.00 0.00 0.00 64 1018.7
20260507222517 63 39 0.0 0.0 0.00 0.00 0.00 65 1018.7
20260507221517 63 336 0.0 0.0 0.00 0.00 0.00 64 1018.8
20260507220515 63 304 0.0 0.0 0.00 0.00 0.00 64 1018.9
20260507215517 63 317 0.0 0.0 0.00 0.00 0.00 65 1019.0
20260507214517 63 5 0.0 0.0 0.00 0.00 0.00 63 1019.1
20260507213517 64 100 0.0 0.0 0.00 0.00 0.00 63 1019.2
20260507212537 64 151 0.0 0.0 0.00 0.00 0.00 63 1019.2
20260507211517 64 80 0.0 0.0 0.00 0.00 0.00 62 1019.4
20260507210517 64 132 0.0 0.0 0.00 0.00 0.00 63 1019.6
20260507205516 64 138 0.0 0.0 0.00 0.00 0.00 64 1019.7
20260507204517 64 104 0.0 0.0 0.00 0.00 0.00 66 1019.7
20260507203536 62 161 0.0 0.0 0.00 0.00 0.00 66 1019.9
20260507202517 62 73 0.0 0.0 0.00 0.00 0.00 65 1019.9
20260507201517 61 98 0.0 0.0 0.00 0.00 0.00 66 1020.0
20260507200516 61 19 0.0 0.0 0.00 0.00 0.00 66 1020.0
20260507195517 61 158 0.0 0.0 0.00 0.00 0.00 67 1020.1
20260507194517 61 93 0.0 0.0 0.00 0.00 0.00 67 1020.2
20260507193516 61 149 0.0 0.0 0.00 0.00 0.00 68 1020.3
20260507192516 61 83 0.0 0.0 0.00 0.00 0.00 68 1020.3
20260507191516 61 131 0.0 0.0 0.00 0.00 0.00 70 1020.4
20260507190537 61 79 0.0 0.0 0.00 0.00 0.00 69 1020.4
20260507185516 61 73 0.0 0.0 0.00 0.00 0.00 69 1020.4
20260507184516 61 117 0.0 0.0 0.00 0.00 0.00 70 1020.5
20260507183517 60 144 0.0 0.0 0.00 0.00 0.00 72 1020.6
20260507182517 60 149 0.0 0.0 0.00 0.00 0.00 72 1020.6
20260507181537 60 158 0.0 0.0 0.00 0.00 0.00 72 1020.6
20260507180516 59 130 0.0 0.0 0.00 0.00 0.00 73 1020.7
20260507175516 59 142 0.0 0.0 0.00 0.00 0.00 72 1020.7
20260507174517 60 162 0.0 0.0 0.00 0.00 0.00 73 1020.8
20260507173516 59 116 0.0 0.0 0.00 0.00 0.00 74 1020.8
20260507172516 59 167 0.0 0.0 0.00 0.00 0.00 74 1020.8
20260507171516 59 158 0.0 0.9 0.00 0.00 0.00 75 1020.8
20260507170516 58 128 0.0 0.0 0.00 0.00 0.00 75 1020.7
20260507165517 57 302 0.0 0.0 0.00 0.00 0.00 76 1020.7
20260507164517 57 247 0.0 0.0 0.00 0.00 0.00 76 1020.8
20260507163516 57 313 0.0 0.0 0.00 0.00 0.00 76 1020.7
20260507162516 57 223 0.0 0.0 0.00 0.00 0.00 76 1020.8
20260507161516 56 194 0.0 0.0 0.00 0.00 0.00 78 1020.8
20260507160556 56 235 0.0 0.0 0.00 0.00 0.00 76 1020.9
20260507155516 57 219 0.0 0.0 0.00 0.00 0.00 77 1021.0
20260507154536 58 180 0.0 0.0 0.00 0.00 0.00 77 1021.0
20260507153536 58 211 0.0 0.0 0.00 0.00 0.00 75 1021.0
20260507152536 59 113 0.0 0.9 0.00 0.00 0.00 76 1021.0
20260507151536 58 135 0.0 1.7 0.00 0.00 0.00 77 1021.0
20260507150516 58 150 0.0 0.0 0.00 0.00 0.00 77 1020.9
20260507145516 58 169 0.0 0.0 0.00 0.00 0.00 78 1020.9
20260507144516 57 151 0.0 0.0 0.00 0.00 0.00 80 1020.9
20260507143516 56 105 0.0 0.0 0.00 0.00 0.00 82 1020.9
20260507142516 55 146 0.0 0.0 0.00 0.00 0.00 85 1020.9
20260507141536 53 159 0.0 0.0 0.00 0.00 0.00 85 1020.9